GW0658 Weather Reports


Display with metric or nautical units.
time (UTC)temp
F
wind
direction
speed
MPH
gust
MPH
rain 1hr
in
rain 24hr
in
rain mn
in
humidity
%
barometer
mb
20260504050518 46 248 1.0 3.0 0.00 0.00 0.00 94 1014.3
20260504045517 46 248 0.0 2.0 0.00 0.00 0.00 94 1014.4
20260504045021 46 0 0.0 3.0 0.00 0.00 0.00 94 1014.4
20260504044543 47 0 0.0 3.0 0.00 0.00 0.00 94 1014.3
20260504044017 47 248 1.0 3.0 0.00 0.00 0.00 94 1014.1
20260504043517 46 248 1.0 4.0 0.00 0.00 0.00 94 1014.0
20260504043055 46 238 2.0 4.0 0.00 0.00 0.00 94 1014.0
20260504042516 47 242 2.0 4.0 0.00 0.00 0.00 94 1014.1
20260504042015 47 0 0.0 4.0 0.00 0.00 0.00 94 1014.1
20260504041536 47 244 1.0 4.0 0.00 0.00 0.00 94 1014.0
20260504041016 47 254 1.0 3.0 0.00 0.00 0.00 94 1013.9
20260504040516 47 242 1.0 3.0 0.00 0.00 0.00 94 1013.9
20260504040036 47 229 1.0 4.0 0.00 0.00 0.00 94 1013.9
20260504035516 47 240 1.0 4.0 0.00 0.00 0.00 94 1013.9
20260504035016 47 240 2.0 4.0 0.00 0.00 0.00 93 1013.8
20260504034540 47 236 1.0 3.0 0.00 0.00 0.00 93 1013.8
20260504034015 47 236 1.0 3.0 0.00 0.00 0.00 93 1013.8
20260504033515 47 236 1.0 3.0 0.00 0.00 0.00 93 1013.7
20260504033034 47 236 1.0 3.0 0.00 0.00 0.00 93 1013.6
20260504032515 47 236 0.0 3.0 0.00 0.00 0.00 93 1013.5
20260504032015 47 0 0.0 4.0 0.00 0.00 0.00 93 1013.4
20260504031541 47 0 0.0 4.0 0.00 0.00 0.00 93 1013.4
20260504031017 47 234 1.0 4.0 0.00 0.00 0.00 93 1013.5
20260504030515 47 227 2.0 4.0 0.00 0.00 0.00 92 1013.3
20260504030055 48 247 2.0 4.0 0.00 0.00 0.00 92 1013.2
20260504025516 48 243 1.0 4.0 0.00 0.00 0.00 92 1013.3
20260504025019 48 0 0.0 3.0 0.00 0.00 0.00 92 1013.1
20260504024539 48 267 1.0 3.0 0.00 0.00 0.00 92 1013.1
20260504024019 48 258 1.0 3.0 0.00 0.00 0.00 92 1013.2
20260504023516 48 245 1.0 4.0 0.00 0.00 0.00 92 1013.2
20260504023035 48 246 1.0 4.0 0.00 0.00 0.00 91 1013.2
20260504022516 48 224 1.0 4.0 0.00 0.00 0.00 91 1013.2
20260504022015 49 0 2.0 4.0 0.00 0.00 0.00 91 1013.1
20260504021544 49 240 0.0 3.0 0.00 0.00 0.00 91 1013.1
20260504021015 49 240 1.0 4.0 0.00 0.00 0.00 91 1013.1
20260504020515 49 244 1.0 4.0 0.00 0.00 0.00 91 1013.1
20260504020037 49 244 2.0 4.0 0.00 0.00 0.00 90 1013.0
20260504015518 49 225 1.0 3.0 0.00 0.00 0.00 90 1013.0
20260504015016 49 212 2.0 4.0 0.00 0.00 0.00 90 1013.0
20260504014539 50 224 2.0 4.0 0.00 0.00 0.00 90 1013.0
20260504014017 50 209 2.0 4.0 0.00 0.00 0.00 90 1013.0
20260504013518 50 221 2.0 4.0 0.00 0.00 0.00 89 1012.8
20260504013037 50 224 1.0 5.0 0.00 0.00 0.00 90 1012.8
20260504012518 50 243 2.0 5.0 0.00 0.00 0.00 89 1012.8
20260504012017 50 238 3.0 5.0 0.00 0.00 0.00 89 1012.8
20260504011535 50 236 2.0 4.0 0.00 0.00 0.00 88 1012.9
20260504011018 51 0 0.0 5.0 0.00 0.00 0.00 88 1012.9
20260504010517 51 0 1.0 5.0 0.00 0.00 0.00 88 1012.9
20260504010034 51 245 2.0 5.0 0.00 0.00 0.00 87 1012.8
20260504005518 52 0 1.0 5.0 0.00 0.00 0.00 87 1012.8
20260504005017 52 212 2.0 5.0 0.00 0.00 0.00 86 1012.8
20260504004542 52 221 2.0 5.0 0.00 0.00 0.00 86 1012.8
20260504004019 53 237 2.0 4.0 0.00 0.00 0.00 85 1012.8
20260504003517 53 256 2.0 5.0 0.00 0.00 0.00 86 1012.8
20260504003033 53 207 2.0 5.0 0.00 0.00 0.00 85 1012.8
20260504002515 53 234 2.0 6.0 0.00 0.00 0.00 85 1012.6
20260504002017 53 209 3.0 6.0 0.00 0.00 0.00 84 1012.7
20260504001539 53 234 2.0 5.0 0.00 0.00 0.00 84 1012.6
20260504001017 53 249 3.0 5.0 0.00 0.00 0.00 85 1012.6
20260504000517 53 225 3.0 6.0 0.00 0.00 0.00 84 1012.7
20260504000035 54 259 2.0 7.0 0.00 0.00 0.00 83 1012.7
20260503235516 54 252 2.0 7.0 0.00 0.00 0.00 84 1012.7
20260503235017 54 233 2.0 7.0 0.00 0.00 0.00 84 1012.6
20260503234539 54 252 2.0 7.0 0.00 0.00 0.00 83 1012.7
20260503234017 55 269 2.0 6.0 0.00 0.00 0.00 83 1012.7
20260503233518 54 209 3.0 6.0 0.00 0.00 0.00 84 1012.7
20260503233034 54 244 1.0 5.0 0.00 0.00 0.00 83 1012.7
20260503232518 55 248 1.0 5.0 0.00 0.00 0.00 82 1012.8
20260503232018 56 273 1.0 4.0 0.00 0.00 0.00 82 1012.7
20260503231533 56 219 2.0 4.0 0.00 0.00 0.00 82 1012.7
20260503231018 56 0 0.0 3.0 0.00 0.00 0.00 81 1012.7
20260503230515 56 0 0.0 3.0 0.00 0.00 0.00 82 1012.8
20260503230040 56 227 1.0 3.0 0.00 0.00 0.00 82 1012.7
20260503225517 56 227 1.0 3.0 0.00 0.00 0.00 80 1012.8
20260503225017 56 199 1.0 3.0 0.00 0.00 0.00 81 1012.9
20260503224538 56 257 0.0 3.0 0.00 0.00 0.00 81 1013.0
20260503224019 56 301 1.0 5.0 0.00 0.00 0.00 81 1013.0
20260503223522 56 232 1.0 5.0 0.00 0.00 0.00 81 1013.1
20260503223036 56 223 1.0 4.0 0.00 0.00 0.00 80 1013.1
20260503222516 56 0 1.0 3.0 0.00 0.00 0.00 81 1013.3
20260503222016 56 214 1.0 4.0 0.00 0.00 0.00 81 1013.3
20260503221541 55 0 0.0 4.0 0.00 0.00 0.00 82 1013.3
20260503221016 55 217 2.0 4.0 0.00 0.00 0.00 83 1013.4
20260503220516 54 0 0.0 0.0 0.00 0.00 0.00 84 1013.3
20260503220038 53 0 0.0 0.0 0.00 0.00 0.00 84 1013.5
20260503215517 53 0 0.0 0.0 0.00 0.00 0.00 83 1013.5
20260503215015 53 0 0.0 0.0 0.00 0.00 0.00 83 1013.5
20260503214547 54 0 0.0 2.0 0.00 0.00 0.00 82 1013.5
20260503214016 54 0 0.0 4.0 0.00 0.00 0.00 82 1013.6
20260503213515 54 0 1.0 4.0 0.00 0.00 0.00 82 1013.5
20260503213035 54 238 1.0 3.0 0.00 0.00 0.00 82 1013.5
20260503212517 55 240 0.0 3.0 0.00 0.00 0.00 81 1013.5
20260503212018 55 239 1.0 3.0 0.00 0.00 0.00 80 1013.6
20260503211541 55 229 1.0 3.0 0.00 0.00 0.00 80 1013.6
20260503211017 55 229 1.0 3.0 0.00 0.00 0.00 81 1013.6
20260503210517 55 0 1.0 3.0 0.00 0.00 0.00 80 1013.5
20260503210039 55 247 1.0 3.0 0.00 0.00 0.00 80 1013.6
20260503205517 55 217 2.0 3.0 0.00 0.00 0.00 79 1013.5
20260503205016 55 240 1.0 4.0 0.00 0.00 0.00 80 1013.4
20260503204540 55 246 1.0 4.0 0.00 0.00 0.00 80 1013.4
20260503204015 55 0 1.0 4.0 0.00 0.00 0.00 80 1013.4
20260503203518 55 254 1.0 5.0 0.00 0.00 0.00 80 1013.4
20260503203035 55 237 2.0 7.0 0.00 0.00 0.00 79 1013.4
20260503202521 55 236 2.0 7.0 0.00 0.00 0.00 80 1013.4
20260503202017 55 257 3.0 6.0 0.00 0.00 0.00 79 1013.4
20260503201535 55 238 2.0 5.0 0.00 0.00 0.00 78 1013.5
20260503201017 56 232 2.0 5.0 0.00 0.00 0.00 76 1013.4
20260503200515 56 223 2.0 7.0 0.00 0.00 0.00 75 1013.4
20260503200035 56 269 3.0 7.0 0.00 0.00 0.00 75 1013.3
20260503195515 57 245 1.0 5.0 0.00 0.00 0.00 75 1013.4
20260503195017 57 234 3.0 5.0 0.00 0.00 0.00 73 1013.4
20260503194537 58 239 2.0 5.0 0.00 0.00 0.00 72 1013.4
20260503194018 59 241 3.0 7.0 0.00 0.00 0.00 71 1013.3
20260503193517 59 269 2.0 8.0 0.00 0.00 0.00 71 1013.3
20260503193034 60 231 2.0 8.0 0.00 0.00 0.00 69 1013.3
20260503192517 60 246 2.0 6.0 0.00 0.00 0.00 69 1013.2
20260503192015 59 250 3.0 8.0 0.00 0.00 0.00 70 1013.1
20260503191535 59 229 3.0 8.0 0.00 0.00 0.00 69 1013.1
20260503191016 59 221 2.0 8.0 0.00 0.00 0.00 68 1013.1
20260503190518 60 239 3.0 8.0 0.00 0.00 0.00 67 1013.1
20260503190042 60 246 4.0 8.0 0.00 0.00 0.00 65 1013.1
20260503185514 60 244 3.0 8.0 0.00 0.00 0.00 63 1013.2
20260503185020 61 250 3.0 8.0 0.00 0.00 0.00 64 1013.3
20260503184534 60 227 1.0 5.0 0.00 0.00 0.00 66 1013.3
20260503184018 60 238 2.0 5.0 0.00 0.00 0.00 67 1013.3
20260503183517 60 217 2.0 6.0 0.00 0.00 0.00 65 1013.3
20260503183039 60 254 1.0 6.0 0.00 0.00 0.00 60 1013.3
20260503182517 61 206 2.0 4.0 0.00 0.00 0.00 57 1013.3
20260503182019 61 233 2.0 4.0 0.00 0.00 0.00 62 1013.3
20260503181556 60 227 2.0 4.0 0.00 0.00 0.00 64 1013.4
20260503181019 59 253 0.0 3.0 0.00 0.00 0.00 63 1013.3
20260503180516 58 198 0.0 3.0 0.00 0.00 0.00 62 1013.4
20260503180047 58 225 2.0 3.0 0.00 0.00 0.00 62 1013.4
20260503175521 58 238 1.0 3.0 0.00 0.00 0.00 64 1013.4
20260503175016 58 211 1.0 2.0 0.00 0.00 0.00 63 1013.5
20260503174535 58 232 0.0 3.0 0.00 0.00 0.00 64 1013.4
20260503174019 58 0 1.0 3.0 0.00 0.00 0.00 62 1013.5
20260503173518 58 213 1.0 3.0 0.00 0.00 0.00 61 1013.5
20260503173035 58 251 0.0 4.0 0.00 0.00 0.00 63 1013.4
20260503172517 58 218 1.0 4.0 0.00 0.00 0.00 61 1013.4
20260503172017 58 216 2.0 4.0 0.00 0.00 0.00 63 1013.3
20260503171541 58 211 2.0 4.0 0.00 0.00 0.00 64 1013.4
20260503171017 58 213 1.0 4.0 0.00 0.00 0.00 65 1013.4
20260503170517 58 211 2.0 4.0 0.00 0.00 0.00 64 1013.3
20260503150518 57 0 0.0 0.0 0.00 0.00 0.00 72 1012.5
20260503131020 56 0 0.0 0.0 0.00 0.00 0.00 63 1011.8
20260503130520 56 0 0.0 0.0 0.00 0.00 0.00 62 1011.7
20260503110523 57 0 0.0 0.0 0.00 0.00 0.00 58 1012.3
20260503081535 57 0 0.0 0.0 0.00 0.00 0.00 68 1013.4
20260503081019 57 0 0.0 0.0 0.00 0.00 0.00 68 1013.5
20260503080517 57 0 0.0 0.0 0.00 0.00 0.00 67 1013.5
20260503072518 57 0 0.0 0.0 0.00 0.00 0.00 64 1013.8
20260503072020 58 0 0.0 0.0 0.00 0.00 0.00 64 1013.9
20260503071533 58 0 0.0 0.0 0.00 0.00 0.00 63 1013.9
20260503071018 58 0 0.0 0.0 0.00 0.00 0.00 63 1013.9
20260503070517 58 0 0.0 0.0 0.00 0.00 0.00 63 1013.9
20260503055018 58 0 0.0 0.0 0.00 0.00 0.00 65 1014.2